BAW750 EGLL-LSGG

Flight info

Callsign BAW750
Flight time 1h 11m
Altitude 37000
Route DCT MAXIT Y803 MID L612 BOGNA UL612 RESMI UM975 PEKIM DCT PILUL DCT PIMUP/N0423F270 DCT PIXIS DCT PIBAT/N0396F230 DCT LUSAR DCT
Aircraft A319/M-SDE2E3FGHIJ1RWXY/SB1

Departure

Time 2026-05-05 16:12
Airport London Heathrow Airport (EGLL)

Arrival

Time 2026-05-05 17:23
Airport Geneva International Airport (LSGG)
Time Latitude Longitude Altitude Speed Heading
2026-05-05 15:37 51.46826 -0.48680 86 ft 0 kts 180°
2026-05-05 16:01 51.46834 -0.48680 88 ft 4 kts 180°
2026-05-05 16:02 51.46857 -0.48681 86 ft 3 kts 180°
2026-05-05 16:02 51.46875 -0.48672 86 ft 4 kts 252°
2026-05-05 16:02 51.46877 -0.48634 86 ft 3 kts 270°
2026-05-05 16:02 51.46877 -0.48629 86 ft 0 kts 270°
2026-05-05 16:06 51.46877 -0.48647 86 ft 4 kts 269°
2026-05-05 16:06 51.46876 -0.48699 90 ft 6 kts 266°
2026-05-05 16:06 51.46852 -0.48747 87 ft 5 kts 205°
2026-05-05 16:06 51.46823 -0.48752 86 ft 5 kts 182°
2026-05-05 16:07 51.46777 -0.48752 86 ft 8 kts 177°
2026-05-05 16:07 51.46722 -0.48748 86 ft 8 kts 179°
2026-05-05 16:07 51.46660 -0.48749 86 ft 8 kts 181°
2026-05-05 16:07 51.46617 -0.48756 86 ft 5 kts 194°
2026-05-05 16:08 51.46593 -0.48772 87 ft 0 kts 202°
2026-05-05 16:08 51.46587 -0.48775 88 ft 0 kts 199°
2026-05-05 16:08 51.46584 -0.48777 86 ft 3 kts 199°
2026-05-05 16:09 51.46548 -0.48787 88 ft 7 kts 184°
2026-05-05 16:09 51.46499 -0.48754 86 ft 9 kts 139°
2026-05-05 16:09 51.46478 -0.48655 86 ft 10 kts 90°
2026-05-05 16:09 51.46478 -0.48616 86 ft 0 kts 88°
2026-05-05 16:11 51.46489 -0.46865 89 ft 133 kts 90°
2026-05-05 16:12 51.46487 -0.45123 130 ft 176 kts 90°
2026-05-05 16:12 51.46215 -0.40782 1102 ft 207 kts 107°
2026-05-05 16:13 51.42379 -0.36147 3222 ft 264 kts 161°
2026-05-05 16:13 51.40552 -0.35582 4213 ft 273 kts 182°
2026-05-05 16:13 51.38715 -0.36377 5220 ft 278 kts 207°
2026-05-05 16:14 51.35227 -0.39266 6657 ft 284 kts 207°
2026-05-05 16:14 51.31666 -0.42073 8625 ft 287 kts 206°
2026-05-05 16:15 51.28013 -0.44917 10291 ft 302 kts 206°
2026-05-05 16:15 51.23967 -0.48108 11029 ft 341 kts 206°
2026-05-05 16:16 51.19659 -0.51495 12453 ft 351 kts 205°
2026-05-05 16:16 51.15184 -0.54953 13902 ft 361 kts 205°
2026-05-05 16:17 51.10613 -0.58450 15246 ft 368 kts 203°
2026-05-05 16:17 51.08156 -0.59645 15874 ft 371 kts 189°
2026-05-05 16:18 51.03080 -0.59145 17202 ft 375 kts 161°
2026-05-05 16:18 51.00693 -0.57455 17878 ft 377 kts 148°
2026-05-05 16:18 50.96298 -0.52788 19084 ft 383 kts 146°
2026-05-05 16:19 50.94079 -0.50419 19662 ft 386 kts 146°
2026-05-05 16:19 50.91924 -0.48123 20227 ft 390 kts 146°
2026-05-05 16:19 50.87381 -0.43307 21368 ft 396 kts 146°
2026-05-05 16:20 50.82750 -0.38412 22432 ft 404 kts 146°
2026-05-05 16:20 50.78045 -0.33432 23468 ft 411 kts 146°
2026-05-05 16:21 50.73259 -0.28385 24406 ft 414 kts 147°
2026-05-05 16:22 50.66050 -0.20820 25917 ft 415 kts 147°
2026-05-05 16:22 50.62043 -0.16610 26665 ft 418 kts 147°
2026-05-05 16:23 50.57176 -0.11516 27571 ft 422 kts 147°
2026-05-05 16:23 50.54725 -0.08960 28032 ft 423 kts 147°
2026-05-05 16:23 50.49812 -0.03841 28919 ft 425 kts 147°
2026-05-05 16:24 50.47340 -0.01270 29347 ft 427 kts 147°
2026-05-05 16:24 50.44855 0.01310 29748 ft 429 kts 147°
2026-05-05 16:24 50.39859 0.06480 30457 ft 432 kts 147°
2026-05-05 16:25 50.37347 0.09075 30775 ft 434 kts 147°
2026-05-05 16:25 50.32277 0.14310 31381 ft 437 kts 147°
2026-05-05 16:25 50.29740 0.16921 31796 ft 437 kts 147°
2026-05-05 16:26 50.24663 0.22136 32615 ft 436 kts 147°
2026-05-05 16:26 50.19601 0.27327 33441 ft 435 kts 147°
2026-05-05 16:27 50.17112 0.29881 33921 ft 433 kts 147°
2026-05-05 16:27 50.14606 0.32458 34319 ft 431 kts 147°
2026-05-05 16:27 50.12069 0.35067 34662 ft 431 kts 147°
2026-05-05 16:27 50.09600 0.37608 34968 ft 432 kts 147°
2026-05-05 16:28 50.07087 0.40191 35265 ft 433 kts 147°
2026-05-05 16:28 50.04568 0.42769 35547 ft 434 kts 147°
2026-05-05 16:28 50.02048 0.45344 35828 ft 434 kts 147°
2026-05-05 16:28 49.99517 0.47926 36114 ft 435 kts 148°
2026-05-05 16:29 49.96987 0.50503 36395 ft 435 kts 148°
2026-05-05 16:29 49.94455 0.53076 36681 ft 435 kts 148°
2026-05-05 16:29 49.91915 0.55655 36869 ft 436 kts 148°
2026-05-05 16:29 49.89379 0.58225 36908 ft 435 kts 148°
2026-05-05 16:30 49.84412 0.63564 36904 ft 436 kts 142°
2026-05-05 16:30 49.79732 0.69474 36902 ft 433 kts 142°
2026-05-05 16:31 49.75045 0.75369 36890 ft 435 kts 142°
2026-05-05 16:31 49.70372 0.81227 36890 ft 432 kts 142°
2026-05-05 16:32 49.65704 0.87070 36878 ft 432 kts 142°
2026-05-05 16:32 49.61028 0.92912 36870 ft 432 kts 142°
2026-05-05 16:33 49.56358 0.98737 36860 ft 432 kts 142°
2026-05-05 16:33 49.51672 1.04535 36864 ft 432 kts 142°
2026-05-05 16:34 49.46986 1.10337 36857 ft 432 kts 142°
2026-05-05 16:34 49.42296 1.16141 36857 ft 433 kts 142°
2026-05-05 16:35 49.37593 1.21927 36858 ft 433 kts 142°
2026-05-05 16:35 49.32891 1.27709 36860 ft 433 kts 142°
2026-05-05 16:36 49.28187 1.33480 36851 ft 433 kts 142°
2026-05-05 16:36 49.23484 1.39234 36853 ft 433 kts 142°
2026-05-05 16:37 49.18777 1.44969 36858 ft 433 kts 142°
2026-05-05 16:37 49.14065 1.50701 36854 ft 432 kts 142°
2026-05-05 16:38 49.09359 1.56416 36852 ft 432 kts 142°
2026-05-05 16:38 49.04646 1.62119 36853 ft 433 kts 142°
2026-05-05 16:39 48.99930 1.67816 36845 ft 433 kts 142°
2026-05-05 16:39 48.95208 1.73512 36838 ft 433 kts 142°
2026-05-05 16:40 48.90476 1.79187 36824 ft 433 kts 142°
2026-05-05 16:40 48.85772 1.84826 36823 ft 434 kts 142°
2026-05-05 16:41 48.81031 1.90503 36821 ft 434 kts 142°
2026-05-05 16:41 48.76288 1.96168 36822 ft 434 kts 142°
2026-05-05 16:42 48.71536 2.01831 36825 ft 435 kts 142°
2026-05-05 16:42 48.66763 2.07484 36825 ft 435 kts 142°
2026-05-05 16:43 48.62062 2.13033 36825 ft 435 kts 142°
2026-05-05 16:43 48.57389 2.18827 36815 ft 435 kts 135°
2026-05-05 16:44 48.53713 2.26084 36818 ft 436 kts 125°
2026-05-05 16:44 48.50262 2.33630 36816 ft 437 kts 126°
2026-05-05 16:45 48.46818 2.41110 36806 ft 437 kts 123°
2026-05-05 16:45 48.43329 2.48665 36810 ft 436 kts 126°
2026-05-05 16:46 48.39849 2.56163 36813 ft 437 kts 126°
2026-05-05 16:46 48.36394 2.63616 36790 ft 438 kts 126°
2026-05-05 16:47 48.32898 2.71138 36797 ft 439 kts 126°
2026-05-05 16:47 48.29392 2.78660 36795 ft 440 kts 126°
2026-05-05 16:48 48.25224 2.85294 36805 ft 437 kts 143°
2026-05-05 16:48 48.20397 2.90848 36796 ft 437 kts 143°
2026-05-05 16:49 48.15585 2.96428 36802 ft 438 kts 143°
2026-05-05 16:49 48.10757 3.02005 36797 ft 438 kts 144°
2026-05-05 16:50 48.05546 3.06574 36807 ft 434 kts 159°
2026-05-05 16:50 47.99972 3.10065 36811 ft 435 kts 158°
2026-05-05 16:51 47.94393 3.13577 36810 ft 435 kts 158°
2026-05-05 16:51 47.88820 3.17089 36816 ft 435 kts 159°
2026-05-05 16:52 47.83234 3.20586 36822 ft 435 kts 159°
2026-05-05 16:52 47.77643 3.24071 36827 ft 436 kts 159°
2026-05-05 16:53 47.72051 3.27556 36828 ft 436 kts 159°
2026-05-05 16:53 47.66459 3.31044 36826 ft 436 kts 159°
2026-05-05 16:54 47.60866 3.34518 36826 ft 436 kts 159°
2026-05-05 16:54 47.55264 3.37981 36818 ft 436 kts 159°
2026-05-05 16:55 47.49666 3.41447 36825 ft 436 kts 159°
2026-05-05 16:55 47.44059 3.44906 36828 ft 437 kts 159°
2026-05-05 16:56 47.38447 3.48354 36837 ft 437 kts 159°
2026-05-05 16:56 47.32821 3.51796 36839 ft 437 kts 160°
2026-05-05 16:57 47.27207 3.55231 36840 ft 437 kts 160°
2026-05-05 16:57 47.21587 3.58668 36846 ft 437 kts 160°
2026-05-05 16:58 47.15969 3.62090 36848 ft 437 kts 160°
2026-05-05 16:58 47.10345 3.65505 36848 ft 437 kts 160°
2026-05-05 16:59 47.04764 3.68892 36848 ft 437 kts 160°
2026-05-05 16:59 46.99173 3.72371 36847 ft 438 kts 154°
2026-05-05 17:00 46.96599 3.74793 36852 ft 442 kts 143°
2026-05-05 17:00 46.94376 3.77905 36849 ft 446 kts 133°
2026-05-05 17:00 46.92578 3.81620 36844 ft 450 kts 122°
2026-05-05 17:00 46.91277 3.85793 36850 ft 453 kts 113°
2026-05-05 17:01 46.89017 3.94404 36847 ft 454 kts 114°
2026-05-05 17:01 46.86729 4.03015 36848 ft 455 kts 114°
2026-05-05 17:02 46.84430 4.11616 36840 ft 455 kts 114°
2026-05-05 17:02 46.82118 4.20233 36521 ft 457 kts 114°
2026-05-05 17:03 46.80960 4.24594 35699 ft 464 kts 112°
2026-05-05 17:03 46.80109 4.29167 34882 ft 472 kts 104°
2026-05-05 17:03 46.79436 4.33879 34047 ft 476 kts 104°
2026-05-05 17:03 46.78761 4.38590 33405 ft 473 kts 104°
2026-05-05 17:04 46.78083 4.43287 32564 ft 473 kts 105°
2026-05-05 17:04 46.77399 4.47959 31853 ft 469 kts 105°
2026-05-05 17:04 46.76716 4.52603 31143 ft 466 kts 105°
2026-05-05 17:04 46.76035 4.57196 30478 ft 462 kts 105°
2026-05-05 17:05 46.75360 4.61747 29892 ft 456 kts 105°
2026-05-05 17:05 46.74693 4.66236 29271 ft 449 kts 105°
2026-05-05 17:05 46.74034 4.70654 28671 ft 443 kts 106°
2026-05-05 17:05 46.73385 4.75009 28129 ft 436 kts 106°
2026-05-05 17:06 46.72749 4.79294 27582 ft 430 kts 106°
2026-05-05 17:06 46.72122 4.83522 27029 ft 424 kts 106°
2026-05-05 17:06 46.71499 4.87691 26482 ft 418 kts 107°
2026-05-05 17:06 46.70881 4.91799 25983 ft 413 kts 107°
2026-05-05 17:07 46.70275 4.95791 25490 ft 408 kts 107°
2026-05-05 17:07 46.69667 4.99788 24999 ft 403 kts 107°
2026-05-05 17:07 46.69060 5.03781 24526 ft 400 kts 107°
2026-05-05 17:07 46.68461 5.07717 24064 ft 396 kts 107°
2026-05-05 17:08 46.67862 5.11628 23610 ft 394 kts 107°
2026-05-05 17:08 46.67268 5.15494 23128 ft 391 kts 107°
2026-05-05 17:08 46.66675 5.19345 22869 ft 391 kts 107°
2026-05-05 17:08 46.66087 5.23218 22892 ft 392 kts 106°
2026-05-05 17:09 46.65504 5.27099 22766 ft 393 kts 106°
2026-05-05 17:09 46.64913 5.31020 21753 ft 403 kts 106°
2026-05-05 17:09 46.64305 5.35022 21031 ft 405 kts 106°
2026-05-05 17:09 46.63702 5.38997 20618 ft 400 kts 106°
2026-05-05 17:10 46.63106 5.42925 20204 ft 394 kts 106°
2026-05-05 17:10 46.62716 5.45488 19930 ft 390 kts 106°
2026-05-05 17:10 46.61937 5.50593 19387 ft 383 kts 106°
2026-05-05 17:10 46.61359 5.54341 18982 ft 377 kts 106°
2026-05-05 17:11 46.60978 5.56799 18718 ft 375 kts 106°
2026-05-05 17:11 46.60404 5.60474 18324 ft 372 kts 106°
2026-05-05 17:11 46.59830 5.64134 17893 ft 370 kts 106°
2026-05-05 17:11 46.59255 5.67773 17496 ft 368 kts 106°
2026-05-05 17:12 46.58680 5.71396 17114 ft 368 kts 106°
2026-05-05 17:12 46.58107 5.75012 16725 ft 366 kts 107°
2026-05-05 17:12 46.57294 5.78463 16335 ft 359 kts 119°
2026-05-05 17:12 46.56013 5.81531 15961 ft 351 kts 131°
2026-05-05 17:13 46.54355 5.84089 15593 ft 345 kts 143°
2026-05-05 17:13 46.52433 5.86132 15225 ft 341 kts 149°
2026-05-05 17:13 46.50481 5.88083 14855 ft 340 kts 149°
2026-05-05 17:13 46.48542 5.90026 14479 ft 338 kts 149°
2026-05-05 17:14 46.46615 5.91960 14085 ft 336 kts 149°
2026-05-05 17:14 46.44697 5.93884 13700 ft 334 kts 149°
2026-05-05 17:14 46.42791 5.95793 13287 ft 332 kts 149°
2026-05-05 17:14 46.40895 5.97694 12893 ft 330 kts 149°
2026-05-05 17:15 46.39040 5.99559 12691 ft 318 kts 148°
2026-05-05 17:15 46.37464 6.01743 12557 ft 313 kts 128°
2026-05-05 17:15 46.36578 6.04615 11998 ft 324 kts 107°
2026-05-05 17:15 46.36534 6.07951 11282 ft 341 kts 82°
2026-05-05 17:16 46.37423 6.11156 10744 ft 347 kts 58°
2026-05-05 17:16 46.38854 6.14005 9931 ft 355 kts 53°
2026-05-05 17:16 46.40393 6.16891 8788 ft 369 kts 53°
2026-05-05 17:16 46.41993 6.19892 7665 ft 381 kts 53°
2026-05-05 17:17 46.43592 6.22904 7179 ft 372 kts 53°
2026-05-05 17:17 46.45135 6.25813 7011 ft 355 kts 53°
2026-05-05 17:17 46.46573 6.28590 7003 ft 334 kts 58°
2026-05-05 17:17 46.47379 6.31591 7011 ft 310 kts 84°
2026-05-05 17:18 46.47277 6.34590 6899 ft 290 kts 111°
2026-05-05 17:18 46.46350 6.37059 6645 ft 273 kts 138°
2026-05-05 17:18 46.44820 6.38500 6380 ft 256 kts 171°
2026-05-05 17:18 46.43086 6.38500 6279 ft 251 kts 199°
2026-05-05 17:19 46.41621 6.37225 6023 ft 248 kts 224°
2026-05-05 17:19 46.40409 6.35433 5697 ft 249 kts 227°
2026-05-05 17:19 46.39211 6.33625 5355 ft 248 kts 226°
2026-05-05 17:19 46.38006 6.31834 5027 ft 248 kts 225°
2026-05-05 17:20 46.36800 6.30051 4686 ft 247 kts 225°
2026-05-05 17:20 46.35601 6.28280 4362 ft 245 kts 225°
2026-05-05 17:20 46.34413 6.26523 4025 ft 244 kts 225°
2026-05-05 17:20 46.33233 6.24781 3705 ft 242 kts 225°
2026-05-05 17:21 46.32059 6.23048 3389 ft 239 kts 225°
2026-05-05 17:21 46.30930 6.21383 3074 ft 225 kts 225°
2026-05-05 17:21 46.29868 6.19816 2771 ft 210 kts 225°
2026-05-05 17:22 46.28044 6.17129 2255 ft 167 kts 225°
2026-05-05 17:22 46.27266 6.15984 2029 ft 152 kts 225°
2026-05-05 17:22 46.26559 6.14921 1803 ft 142 kts 226°
2026-05-05 17:22 46.25880 6.13924 1605 ft 138 kts 226°
2026-05-05 17:23 46.25206 6.12946 1468 ft 137 kts 226°
2026-05-05 17:23 46.24545 6.11977 1374 ft 126 kts 225°
2026-05-05 17:23 46.24087 6.11312 1375 ft 51 kts 225°
2026-05-05 17:23 46.23962 6.11129 1379 ft 29 kts 221°
2026-05-05 17:24 46.23796 6.11081 1378 ft 14 kts 179°
2026-05-05 17:24 46.23779 6.11081 1380 ft 7 kts 179°
2026-05-05 17:24 46.23736 6.11084 1385 ft 5 kts 178°
2026-05-05 17:24 46.23694 6.11063 1385 ft 8 kts 215°
2026-05-05 17:25 46.23639 6.10985 1390 ft 11 kts 228°
2026-05-05 17:25 46.23613 6.10941 1388 ft 8 kts 227°
2026-05-05 17:25 46.23597 6.10915 1387 ft 2 kts 229°
2026-05-05 17:25 46.23586 6.10897 1389 ft 0 kts 228°
2026-05-05 17:26 46.23581 6.10889 1388 ft 2 kts 227°
2026-05-05 17:26 46.23577 6.10882 1390 ft 1 kts 225°
2026-05-05 17:26 46.23563 6.10864 1397 ft 4 kts 223°
2026-05-05 17:26 46.23552 6.10860 1401 ft 0 kts 171°
2026-05-05 17:27 46.23543 6.10864 1400 ft 1 kts 160°
2026-05-05 17:27 46.23529 6.10877 1395 ft 5 kts 141°
2026-05-05 17:27 46.23510 6.10905 1393 ft 3 kts 135°
2026-05-05 17:27 46.23500 6.10920 1393 ft 1 kts 136°
2026-05-05 17:28 46.23498 6.10922 1393 ft 0 kts 136°
2026-05-05 17:32 46.23498 6.10923 1393 ft 0 kts 136°
2026-05-05 17:33 46.23497 6.10923 1393 ft 0 kts 136°